Year,Month,Day,Hour,Minute,Value (Times are PST for temperature in C)
2013,09,12,00,00,16.10
2013,09,12,00,01,16.10
2013,09,12,00,02,16.00
2013,09,12,00,03,16.00
2013,09,12,00,04,15.90
2013,09,12,00,05,15.90
2013,09,12,00,06,15.80
2013,09,12,00,07,15.80
2013,09,12,00,08,15.80
2013,09,12,00,09,15.70
2013,09,12,00,10,15.70
2013,09,12,00,11,15.70
2013,09,12,00,12,15.70
2013,09,12,00,13,15.70
2013,09,12,00,14,15.70
2013,09,12,00,15,15.70
2013,09,12,00,16,15.70
2013,09,12,00,17,15.70
2013,09,12,00,18,15.70
2013,09,12,00,19,15.70
2013,09,12,00,20,15.70
2013,09,12,00,21,15.70
2013,09,12,00,22,15.70
2013,09,12,00,23,15.70
2013,09,12,00,24,15.80
2013,09,12,00,25,15.80
2013,09,12,00,26,15.80
2013,09,12,00,27,15.80
2013,09,12,00,28,15.80
2013,09,12,00,29,15.80
2013,09,12,00,30,15.90
2013,09,12,00,31,16.00
2013,09,12,00,32,16.00
2013,09,12,00,33,16.10
2013,09,12,00,34,16.10
2013,09,12,00,35,16.10
2013,09,12,00,36,16.10
2013,09,12,00,37,16.10
2013,09,12,00,38,16.20
2013,09,12,00,39,16.30
2013,09,12,00,40,16.30
2013,09,12,00,41,16.30
2013,09,12,00,42,16.20
2013,09,12,00,43,15.90
2013,09,12,00,44,15.70
2013,09,12,00,45,15.50
2013,09,12,00,46,15.30
2013,09,12,00,47,15.10
2013,09,12,00,48,14.90
2013,09,12,00,49,14.70
2013,09,12,00,50,14.50
2013,09,12,00,51,14.40
2013,09,12,00,52,14.30
2013,09,12,00,53,14.30
2013,09,12,00,54,14.30
2013,09,12,00,55,14.30
2013,09,12,00,56,14.20
2013,09,12,00,57,14.20
2013,09,12,00,58,14.20
2013,09,12,00,59,14.20
2013,09,12,01,00,14.20
2013,09,12,01,01,14.30
2013,09,12,01,02,14.30
2013,09,12,01,03,14.30
2013,09,12,01,04,14.20
2013,09,12,01,05,13.90
2013,09,12,01,06,13.60
2013,09,12,01,07,13.20
2013,09,12,01,08,13.00
2013,09,12,01,09,12.90
2013,09,12,01,10,12.80
2013,09,12,01,11,12.70
2013,09,12,01,12,12.60
2013,09,12,01,13,12.50
2013,09,12,01,14,12.40
2013,09,12,01,15,12.30
2013,09,12,01,16,12.30
2013,09,12,01,17,12.30
2013,09,12,01,18,12.20
2013,09,12,01,19,12.20
2013,09,12,01,20,12.20
2013,09,12,01,21,12.20
2013,09,12,01,22,12.20
2013,09,12,01,23,12.20
2013,09,12,01,24,12.20
2013,09,12,01,25,12.20
2013,09,12,01,26,12.10
2013,09,12,01,27,12.10
2013,09,12,01,28,12.10
2013,09,12,01,29,12.10
2013,09,12,01,30,12.10
2013,09,12,01,31,12.10
2013,09,12,01,32,12.10
2013,09,12,01,33,12.10
2013,09,12,01,34,12.10
2013,09,12,01,35,12.10
2013,09,12,01,36,12.10
2013,09,12,01,37,12.10
2013,09,12,01,38,12.10
2013,09,12,01,39,12.10
2013,09,12,01,40,12.10
2013,09,12,01,41,12.10
2013,09,12,01,42,12.10
2013,09,12,01,43,12.10
2013,09,12,01,44,12.10
2013,09,12,01,45,12.10
2013,09,12,01,46,12.10
2013,09,12,01,47,12.10
2013,09,12,01,48,12.20
2013,09,12,01,49,12.20
2013,09,12,01,50,12.20
2013,09,12,01,51,12.20
2013,09,12,01,52,12.20
2013,09,12,01,53,12.10
2013,09,12,01,54,12.10
2013,09,12,01,55,12.10
2013,09,12,01,56,12.10
2013,09,12,01,57,12.10
2013,09,12,01,58,12.10
2013,09,12,01,59,12.10
2013,09,12,02,00,12.10
2013,09,12,02,01,12.10
2013,09,12,02,02,12.10
2013,09,12,02,03,12.10
2013,09,12,02,04,12.10
2013,09,12,02,05,12.10
2013,09,12,02,06,12.10
2013,09,12,02,07,12.20
2013,09,12,02,08,12.20
2013,09,12,02,09,12.20
2013,09,12,02,10,12.20
2013,09,12,02,11,12.30
2013,09,12,02,12,12.30
2013,09,12,02,13,12.30
2013,09,12,02,14,12.30
2013,09,12,02,15,12.30
2013,09,12,02,16,12.40
2013,09,12,02,17,12.40
2013,09,12,02,18,12.40
2013,09,12,02,19,12.50
2013,09,12,02,20,12.50
2013,09,12,02,21,12.60
2013,09,12,02,22,12.60
2013,09,12,02,23,12.60
2013,09,12,02,24,12.60
2013,09,12,02,25,12.60
2013,09,12,02,26,12.70
2013,09,12,02,27,12.70
2013,09,12,02,28,12.70
2013,09,12,02,29,12.70
2013,09,12,02,30,12.70
2013,09,12,02,31,12.70
2013,09,12,02,32,12.70
2013,09,12,02,33,12.70
2013,09,12,02,34,12.60
2013,09,12,02,35,12.60
2013,09,12,02,36,12.70
2013,09,12,02,37,12.70
2013,09,12,02,38,12.70
2013,09,12,02,39,12.80
2013,09,12,02,40,12.80
2013,09,12,02,41,12.80
2013,09,12,02,42,12.90
2013,09,12,02,43,13.00
2013,09,12,02,44,13.10
2013,09,12,02,45,13.20
2013,09,12,02,46,13.20
2013,09,12,02,47,13.30
2013,09,12,02,48,13.30
2013,09,12,02,49,13.40
2013,09,12,02,50,13.50
2013,09,12,02,51,13.50
2013,09,12,02,52,13.60
2013,09,12,02,53,13.60
2013,09,12,02,54,13.60
2013,09,12,02,55,13.60
2013,09,12,02,56,13.50
2013,09,12,02,57,13.50
2013,09,12,02,58,13.40
2013,09,12,02,59,13.40
2013,09,12,03,00,13.40
2013,09,12,03,01,13.40
2013,09,12,03,02,13.30
2013,09,12,03,03,13.30
2013,09,12,03,04,13.20
2013,09,12,03,05,13.20
2013,09,12,03,06,13.20
2013,09,12,03,07,13.20
2013,09,12,03,08,13.10
2013,09,12,03,09,13.10
2013,09,12,03,10,13.10
2013,09,12,03,11,13.00
2013,09,12,03,12,13.00
2013,09,12,03,13,12.90
2013,09,12,03,14,12.90
2013,09,12,03,15,12.80
2013,09,12,03,16,12.80
2013,09,12,03,17,12.80
2013,09,12,03,18,12.80
2013,09,12,03,19,12.80
2013,09,12,03,20,12.80
2013,09,12,03,21,12.80
2013,09,12,03,22,12.90
2013,09,12,03,23,12.90
2013,09,12,03,24,13.00
2013,09,12,03,25,13.00
2013,09,12,03,26,13.00
2013,09,12,03,27,13.00
2013,09,12,03,28,13.00
2013,09,12,03,29,13.00
2013,09,12,03,30,13.00
2013,09,12,03,31,13.00
2013,09,12,03,32,13.10
2013,09,12,03,33,13.10
2013,09,12,03,34,13.10
2013,09,12,03,35,13.20
2013,09,12,03,36,13.20
2013,09,12,03,37,13.30
2013,09,12,03,38,13.40
2013,09,12,03,39,13.40
2013,09,12,03,40,13.40
2013,09,12,03,41,13.40
2013,09,12,03,42,13.40
2013,09,12,03,43,13.40
2013,09,12,03,44,13.40
2013,09,12,03,45,13.40
2013,09,12,03,46,13.50
2013,09,12,03,47,13.40
2013,09,12,03,48,13.30
2013,09,12,03,49,13.50
2013,09,12,03,50,13.70
2013,09,12,03,51,13.60
2013,09,12,03,52,13.70
2013,09,12,03,53,13.70
2013,09,12,03,54,13.80
2013,09,12,03,55,13.80
2013,09,12,03,56,13.90
2013,09,12,03,57,14.10
2013,09,12,03,58,14.20
2013,09,12,03,59,14.40
2013,09,12,04,00,14.40
2013,09,12,04,01,14.40
2013,09,12,04,02,14.40
2013,09,12,04,03,14.40
2013,09,12,04,04,14.30
2013,09,12,04,05,14.40
2013,09,12,04,06,14.40
2013,09,12,04,07,14.40
2013,09,12,04,08,14.50
2013,09,12,04,09,14.50
2013,09,12,04,10,14.60
2013,09,12,04,11,14.70
2013,09,12,04,12,14.90
2013,09,12,04,13,15.00
2013,09,12,04,14,15.10
2013,09,12,04,15,15.20
2013,09,12,04,16,15.30
2013,09,12,04,17,15.40
2013,09,12,04,18,15.40
2013,09,12,04,19,15.50
2013,09,12,04,20,15.60
2013,09,12,04,21,15.60
2013,09,12,04,22,15.60
2013,09,12,04,23,15.60
2013,09,12,04,24,15.50
2013,09,12,04,25,15.40
2013,09,12,04,26,15.30
2013,09,12,04,27,15.10
2013,09,12,04,28,14.90
2013,09,12,04,29,14.70
2013,09,12,04,30,14.50
2013,09,12,04,31,14.30
2013,09,12,04,32,14.20
2013,09,12,04,33,14.10
2013,09,12,04,34,14.00
2013,09,12,04,35,13.90
2013,09,12,04,36,13.90
2013,09,12,04,37,13.90
2013,09,12,04,38,13.90
2013,09,12,04,39,13.80
2013,09,12,04,40,13.80
2013,09,12,04,41,13.70
2013,09,12,04,42,13.70
2013,09,12,04,43,13.60
2013,09,12,04,44,13.60
2013,09,12,04,45,13.60
2013,09,12,04,46,13.60
2013,09,12,04,47,13.60
2013,09,12,04,48,13.60
2013,09,12,04,49,13.60
2013,09,12,04,50,13.70
2013,09,12,04,51,13.70
2013,09,12,04,52,13.70
2013,09,12,04,53,13.80
2013,09,12,04,54,13.80
2013,09,12,04,55,13.80
2013,09,12,04,56,13.80
2013,09,12,04,57,13.90
2013,09,12,04,58,13.90
2013,09,12,04,59,14.00
2013,09,12,05,00,14.00
2013,09,12,05,01,14.10
2013,09,12,05,02,14.10
2013,09,12,05,03,14.20
2013,09,12,05,04,14.20
2013,09,12,05,05,14.20
2013,09,12,05,06,14.30
2013,09,12,05,07,14.30
2013,09,12,05,08,14.30
2013,09,12,05,09,14.30
2013,09,12,05,10,14.30
2013,09,12,05,11,14.30
2013,09,12,05,12,14.30
2013,09,12,05,13,14.20
2013,09,12,05,14,14.20
2013,09,12,05,15,14.10
2013,09,12,05,16,14.10
2013,09,12,05,17,14.10
2013,09,12,05,18,14.10
2013,09,12,05,19,14.10
2013,09,12,05,20,14.10
2013,09,12,05,21,14.10
2013,09,12,05,22,14.10
2013,09,12,05,23,14.10
2013,09,12,05,24,14.00
2013,09,12,05,25,14.00
2013,09,12,05,26,14.00
2013,09,12,05,27,14.00
2013,09,12,05,28,14.00
2013,09,12,05,29,14.00
2013,09,12,05,30,14.00
2013,09,12,05,31,13.90
2013,09,12,05,32,13.90
2013,09,12,05,33,13.90
2013,09,12,05,34,13.80
2013,09,12,05,35,13.80
2013,09,12,05,36,13.80
2013,09,12,05,37,13.70
2013,09,12,05,38,13.70
2013,09,12,05,39,13.70
2013,09,12,05,40,13.60
2013,09,12,05,41,13.60
2013,09,12,05,42,13.60
2013,09,12,05,43,13.50
2013,09,12,05,44,13.50
2013,09,12,05,45,13.50
2013,09,12,05,46,13.40
2013,09,12,05,47,13.40
2013,09,12,05,48,13.40
2013,09,12,05,49,13.40
2013,09,12,05,50,13.40
2013,09,12,05,51,13.40
2013,09,12,05,52,13.40
2013,09,12,05,53,13.40
2013,09,12,05,54,13.40
2013,09,12,05,55,13.40
2013,09,12,05,56,13.40
2013,09,12,05,57,13.30
2013,09,12,05,58,13.30
2013,09,12,05,59,13.40
2013,09,12,06,00,13.40
2013,09,12,06,01,13.50
2013,09,12,06,02,13.60
2013,09,12,06,03,13.70
2013,09,12,06,04,13.80
2013,09,12,06,05,13.90
2013,09,12,06,06,14.00
2013,09,12,06,07,14.00
2013,09,12,06,08,14.10
2013,09,12,06,09,14.20
2013,09,12,06,10,14.50
2013,09,12,06,11,14.70
2013,09,12,06,12,15.00
2013,09,12,06,13,15.20
2013,09,12,06,14,15.40
2013,09,12,06,15,15.60
2013,09,12,06,16,15.70
2013,09,12,06,17,15.80
2013,09,12,06,18,15.90
2013,09,12,06,19,15.90
2013,09,12,06,20,15.90
2013,09,12,06,21,15.80
2013,09,12,06,22,15.80
2013,09,12,06,23,15.70
2013,09,12,06,24,15.60
2013,09,12,06,25,15.50
2013,09,12,06,26,15.40
2013,09,12,06,27,15.40
2013,09,12,06,28,15.30
2013,09,12,06,29,15.20
2013,09,12,06,30,15.20
2013,09,12,06,31,15.20
2013,09,12,06,32,15.20
2013,09,12,06,33,15.20
2013,09,12,06,34,15.20
2013,09,12,06,35,15.20
2013,09,12,06,36,15.20
2013,09,12,06,37,15.10
2013,09,12,06,38,15.00
2013,09,12,06,39,14.90
2013,09,12,06,40,14.80
2013,09,12,06,41,14.50
2013,09,12,06,42,14.30
2013,09,12,06,43,14.10
2013,09,12,06,44,14.00
2013,09,12,06,45,14.00
2013,09,12,06,46,14.00
2013,09,12,06,47,13.90
2013,09,12,06,48,13.90
2013,09,12,06,49,13.80
2013,09,12,06,50,13.80
2013,09,12,06,51,13.70
2013,09,12,06,52,13.60
2013,09,12,06,53,13.50
2013,09,12,06,54,13.40
2013,09,12,06,55,13.30
2013,09,12,06,56,13.30
2013,09,12,06,57,13.30
2013,09,12,06,58,13.40
2013,09,12,06,59,13.40
2013,09,12,07,00,13.40
2013,09,12,07,01,13.50
2013,09,12,07,02,13.70
2013,09,12,07,03,13.80
2013,09,12,07,04,13.80
2013,09,12,07,05,13.80
2013,09,12,07,06,13.80
2013,09,12,07,07,13.80
2013,09,12,07,08,13.90
2013,09,12,07,09,13.90
2013,09,12,07,10,13.90
2013,09,12,07,11,13.90
2013,09,12,07,12,13.90
2013,09,12,07,13,13.90
2013,09,12,07,14,13.90
2013,09,12,07,15,13.90
2013,09,12,07,16,13.80
2013,09,12,07,17,13.70
2013,09,12,07,18,13.60
2013,09,12,07,19,13.50
2013,09,12,07,20,13.40
2013,09,12,07,21,13.40
2013,09,12,07,22,13.30
2013,09,12,07,23,13.20
2013,09,12,07,24,13.20
2013,09,12,07,25,13.20
2013,09,12,07,26,13.20
2013,09,12,07,27,13.20
2013,09,12,07,28,13.30
2013,09,12,07,29,13.30
2013,09,12,07,30,13.40
2013,09,12,07,31,13.40
2013,09,12,07,32,13.50
2013,09,12,07,33,13.60
2013,09,12,07,34,13.70
2013,09,12,07,35,13.70
2013,09,12,07,36,13.80
2013,09,12,07,37,13.80
2013,09,12,07,38,13.90
2013,09,12,07,39,13.90
2013,09,12,07,40,14.00
2013,09,12,07,41,14.00
2013,09,12,07,42,14.00
2013,09,12,07,43,14.10
2013,09,12,07,44,14.10
2013,09,12,07,45,14.10
2013,09,12,07,46,14.10
2013,09,12,07,47,14.20
2013,09,12,07,48,14.20
2013,09,12,07,49,14.20
2013,09,12,07,50,14.20
2013,09,12,07,51,14.20
2013,09,12,07,52,14.20
2013,09,12,07,53,14.20
2013,09,12,07,54,14.20
2013,09,12,07,55,14.20
2013,09,12,07,56,14.20
2013,09,12,07,57,14.20
2013,09,12,07,58,14.20
2013,09,12,07,59,14.20
2013,09,12,08,00,14.10
2013,09,12,08,06,14.20
2013,09,12,08,07,14.20
2013,09,12,08,08,14.30
2013,09,12,08,09,14.30
2013,09,12,08,10,14.30
2013,09,12,08,11,14.40
2013,09,12,08,12,14.40
2013,09,12,08,13,14.30
2013,09,12,08,14,14.30
2013,09,12,08,15,14.40
2013,09,12,08,16,14.40
2013,09,12,08,17,14.40
2013,09,12,08,18,14.30
2013,09,12,08,19,14.20
2013,09,12,08,20,14.10
2013,09,12,08,21,14.00
2013,09,12,08,22,13.90
2013,09,12,08,23,13.70
2013,09,12,08,24,13.60
2013,09,12,08,25,13.50
2013,09,12,08,26,13.30
2013,09,12,08,27,13.30
2013,09,12,08,28,13.20
2013,09,12,08,29,13.20
2013,09,12,08,30,13.20
2013,09,12,08,31,13.20
2013,09,12,08,32,13.10
2013,09,12,08,33,13.10
2013,09,12,08,34,13.10
2013,09,12,08,35,13.10
2013,09,12,08,36,13.20
2013,09,12,08,37,13.20
2013,09,12,08,38,13.30
2013,09,12,08,39,13.40
2013,09,12,08,40,13.40
2013,09,12,08,41,13.40
2013,09,12,08,42,13.40
2013,09,12,08,43,13.40
2013,09,12,08,44,13.50
2013,09,12,08,45,13.50
2013,09,12,08,46,13.50
2013,09,12,08,47,13.50
2013,09,12,08,48,13.60
2013,09,12,08,49,13.60
2013,09,12,08,50,13.60
2013,09,12,08,51,13.60
2013,09,12,08,52,13.60
2013,09,12,08,53,13.60
2013,09,12,08,54,13.60
2013,09,12,08,55,13.50
2013,09,12,08,56,13.40
2013,09,12,08,57,13.40
2013,09,12,08,58,13.30
2013,09,12,08,59,13.20
2013,09,12,09,00,13.10
2013,09,12,09,01,13.10
2013,09,12,09,02,13.00
2013,09,12,09,03,13.00
2013,09,12,09,04,12.90
2013,09,12,09,05,12.90
2013,09,12,09,06,12.90
2013,09,12,09,07,12.80
2013,09,12,09,08,12.80
2013,09,12,09,09,12.80
2013,09,12,09,10,12.80
2013,09,12,09,11,12.80
2013,09,12,09,12,12.80
2013,09,12,09,13,12.80
2013,09,12,09,14,12.80
2013,09,12,09,15,12.90
2013,09,12,09,16,12.90
2013,09,12,09,17,12.90
2013,09,12,09,18,12.90
2013,09,12,09,19,13.00
2013,09,12,09,20,13.00
2013,09,12,09,21,13.00
2013,09,12,09,22,13.10
2013,09,12,09,23,13.10
2013,09,12,09,24,13.10
2013,09,12,09,25,13.10
2013,09,12,09,26,13.10
2013,09,12,09,27,13.10
2013,09,12,09,28,13.10
2013,09,12,09,29,13.10
2013,09,12,09,30,13.10
2013,09,12,09,31,13.10
2013,09,12,09,32,13.20
2013,09,12,09,33,13.20
2013,09,12,09,34,13.20
2013,09,12,09,35,13.20
2013,09,12,09,36,13.20
2013,09,12,09,37,13.20
2013,09,12,09,38,13.20
2013,09,12,09,39,13.20
2013,09,12,09,40,13.20
2013,09,12,09,41,13.20
2013,09,12,09,42,13.20
2013,09,12,09,43,13.20
2013,09,12,09,44,13.20
2013,09,12,09,45,13.20
2013,09,12,09,46,13.20
2013,09,12,09,47,13.20
2013,09,12,09,48,13.30
2013,09,12,09,49,13.30
2013,09,12,09,50,13.30
2013,09,12,09,51,13.20
2013,09,12,09,52,13.10
2013,09,12,09,53,12.90
2013,09,12,09,54,12.80
2013,09,12,09,55,12.70
2013,09,12,09,56,12.60
2013,09,12,09,57,12.50
2013,09,12,09,58,12.40
2013,09,12,09,59,12.40
2013,09,12,10,00,12.40
2013,09,12,10,01,12.30
2013,09,12,10,02,12.30
2013,09,12,10,03,12.30
2013,09,12,10,04,12.30
2013,09,12,10,05,12.30
2013,09,12,10,06,12.30
2013,09,12,10,07,12.30
2013,09,12,10,08,12.30
2013,09,12,10,09,12.30
2013,09,12,10,10,12.40
2013,09,12,10,11,12.40
2013,09,12,10,12,12.40
2013,09,12,10,13,12.40
2013,09,12,10,14,12.40
2013,09,12,10,15,12.40
2013,09,12,10,16,12.40
2013,09,12,10,17,12.40
2013,09,12,10,18,12.40
2013,09,12,10,19,12.40
2013,09,12,10,20,12.30
2013,09,12,10,21,12.30
2013,09,12,10,22,12.20
2013,09,12,10,23,12.20
2013,09,12,10,24,12.20
2013,09,12,10,25,12.10
2013,09,12,10,26,12.10
2013,09,12,10,27,12.10
2013,09,12,10,28,12.10
2013,09,12,10,29,12.10
2013,09,12,10,30,12.20
2013,09,12,10,31,12.20
2013,09,12,10,32,12.30
2013,09,12,10,33,12.30
2013,09,12,10,34,12.30
2013,09,12,10,35,12.40
2013,09,12,10,36,12.40
2013,09,12,10,37,12.40
2013,09,12,10,38,12.40
2013,09,12,10,39,12.30
2013,09,12,10,40,12.30
2013,09,12,10,41,12.20
2013,09,12,10,42,12.20
2013,09,12,10,43,12.20
2013,09,12,10,44,12.20
2013,09,12,10,45,12.10
2013,09,12,10,46,12.10
2013,09,12,10,47,12.10
2013,09,12,10,48,12.00
2013,09,12,10,49,12.00
2013,09,12,10,50,11.90
2013,09,12,10,51,11.90
2013,09,12,10,52,11.80
2013,09,12,10,53,11.80
2013,09,12,10,54,11.80
2013,09,12,10,55,11.70
2013,09,12,10,56,11.70
2013,09,12,10,57,11.70
2013,09,12,10,58,11.70
2013,09,12,10,59,11.70
2013,09,12,11,00,11.70
2013,09,12,11,01,11.70
2013,09,12,11,02,11.70
2013,09,12,11,03,11.70
2013,09,12,11,04,11.70
2013,09,12,11,05,11.70
2013,09,12,11,06,11.70
2013,09,12,11,07,11.70
2013,09,12,11,08,11.80
2013,09,12,11,09,11.90
2013,09,12,11,10,12.00
2013,09,12,11,11,12.00
2013,09,12,11,12,12.00
2013,09,12,11,13,11.90
2013,09,12,11,14,11.90
2013,09,12,11,15,11.90
2013,09,12,11,16,11.90
2013,09,12,11,17,11.90
2013,09,12,11,18,11.90
2013,09,12,11,19,12.00
2013,09,12,11,20,12.10
2013,09,12,11,21,12.20
2013,09,12,11,22,12.30
2013,09,12,11,23,12.40
2013,09,12,11,24,12.50
2013,09,12,11,25,12.60
2013,09,12,11,26,12.60
2013,09,12,11,27,12.70
2013,09,12,11,28,12.60
2013,09,12,11,29,12.60
2013,09,12,11,30,12.60
2013,09,12,11,31,12.60
2013,09,12,11,32,12.60
2013,09,12,11,33,12.60
2013,09,12,11,34,12.60
2013,09,12,11,35,12.50
2013,09,12,11,36,12.40
2013,09,12,11,37,12.30
2013,09,12,11,38,12.20
2013,09,12,11,39,12.10
2013,09,12,11,40,12.00
2013,09,12,11,41,12.00
2013,09,12,11,42,11.90
2013,09,12,11,43,11.90
2013,09,12,11,44,11.80
2013,09,12,11,45,11.80
2013,09,12,11,46,11.80
2013,09,12,11,47,11.80
2013,09,12,11,48,11.70
2013,09,12,11,49,11.70
2013,09,12,11,50,11.80
2013,09,12,11,51,11.80
2013,09,12,11,52,11.80
2013,09,12,11,53,11.80
2013,09,12,11,54,11.80
2013,09,12,11,55,11.90
2013,09,12,11,56,11.90
2013,09,12,11,57,11.90
2013,09,12,11,58,12.00
2013,09,12,11,59,12.10
2013,09,12,12,00,12.10
2013,09,12,12,01,12.10
2013,09,12,12,02,12.20
2013,09,12,12,03,12.20
2013,09,12,12,04,12.20
2013,09,12,12,05,12.20
2013,09,12,12,06,12.20
2013,09,12,12,07,12.20
2013,09,12,12,08,12.20
2013,09,12,12,09,12.20
2013,09,12,12,10,12.20
2013,09,12,12,11,12.30
2013,09,12,12,12,12.30
2013,09,12,12,13,12.40
2013,09,12,12,14,12.50
2013,09,12,12,15,12.60
2013,09,12,12,16,12.70
2013,09,12,12,17,12.80
2013,09,12,12,18,12.90
2013,09,12,12,19,13.00
2013,09,12,12,20,13.10
2013,09,12,12,21,13.10
2013,09,12,12,22,13.20
2013,09,12,12,23,13.30
2013,09,12,12,24,13.50
2013,09,12,12,25,13.60
2013,09,12,12,26,13.80
2013,09,12,12,27,14.00
2013,09,12,12,28,14.30
2013,09,12,12,29,14.40
2013,09,12,12,30,14.60
2013,09,12,12,31,14.70
2013,09,12,12,32,14.70
2013,09,12,12,33,14.80
2013,09,12,12,34,14.80
2013,09,12,12,35,14.80
2013,09,12,12,36,14.90
2013,09,12,12,37,14.90
2013,09,12,12,38,14.90
2013,09,12,12,39,14.90
2013,09,12,12,40,14.90
2013,09,12,12,41,14.90
2013,09,12,12,42,14.90
2013,09,12,12,43,14.90
2013,09,12,12,44,15.00
2013,09,12,12,45,15.00
2013,09,12,12,46,15.10
2013,09,12,12,47,15.00
2013,09,12,12,48,14.90
2013,09,12,12,49,14.90
2013,09,12,12,50,14.80
2013,09,12,12,51,14.80
2013,09,12,12,52,14.70
2013,09,12,12,53,14.70
2013,09,12,12,54,14.80
2013,09,12,12,55,14.80
2013,09,12,12,56,14.90
2013,09,12,12,57,15.00
2013,09,12,12,58,15.10
2013,09,12,12,59,15.20
2013,09,12,13,00,15.30
2013,09,12,13,01,15.40
2013,09,12,13,02,15.50
2013,09,12,13,03,15.60
2013,09,12,13,04,15.70
2013,09,12,13,05,15.80
2013,09,12,13,06,15.80
2013,09,12,13,07,15.90
2013,09,12,13,08,15.90
2013,09,12,13,09,16.00
2013,09,12,13,10,16.10
2013,09,12,13,11,16.10
2013,09,12,13,12,16.20
2013,09,12,13,13,16.20
2013,09,12,13,14,16.20
2013,09,12,13,15,16.30
2013,09,12,13,16,16.30
2013,09,12,13,17,16.20
2013,09,12,13,18,16.10
2013,09,12,13,19,16.10
2013,09,12,13,20,16.20
2013,09,12,13,21,16.20
2013,09,12,13,22,16.20
2013,09,12,13,23,16.20
2013,09,12,13,24,16.20
2013,09,12,13,25,16.20
2013,09,12,13,26,16.10
2013,09,12,13,27,16.10
2013,09,12,13,28,16.00
2013,09,12,13,29,16.00
2013,09,12,13,30,15.90
2013,09,12,13,31,15.80
2013,09,12,13,32,15.70
2013,09,12,13,33,15.60
2013,09,12,13,34,15.50
2013,09,12,13,35,15.30
2013,09,12,13,36,15.20
2013,09,12,13,37,15.20
2013,09,12,13,38,15.10
2013,09,12,13,39,15.00
2013,09,12,13,40,14.90
2013,09,12,13,41,14.80
2013,09,12,13,42,14.70
2013,09,12,13,43,14.60
2013,09,12,13,44,14.50
2013,09,12,13,45,14.50
2013,09,12,13,46,14.40
2013,09,12,13,47,14.30
2013,09,12,13,48,14.20
2013,09,12,13,49,14.10
2013,09,12,13,50,14.00
2013,09,12,13,51,13.90
2013,09,12,13,52,13.80
2013,09,12,13,53,13.70
2013,09,12,13,54,13.70
2013,09,12,13,55,13.60
2013,09,12,13,56,13.50
2013,09,12,13,57,13.50
2013,09,12,13,58,13.40
2013,09,12,13,59,13.40
2013,09,12,14,00,13.40
2013,09,12,14,01,13.30
2013,09,12,14,02,13.30
2013,09,12,14,03,13.30
2013,09,12,14,04,13.20
2013,09,12,14,05,13.20
2013,09,12,14,06,13.20
2013,09,12,14,07,13.20
2013,09,12,14,08,13.20
2013,09,12,14,09,13.10
2013,09,12,14,10,13.10
2013,09,12,14,11,13.10
2013,09,12,14,12,13.00
2013,09,12,14,13,13.00
2013,09,12,14,14,13.00
2013,09,12,14,15,12.90
2013,09,12,14,16,12.90
2013,09,12,14,17,12.90
2013,09,12,14,18,12.90
2013,09,12,14,19,12.90
2013,09,12,14,20,12.90
2013,09,12,14,21,12.90
2013,09,12,14,22,12.90
2013,09,12,14,23,12.90
2013,09,12,14,24,12.80
2013,09,12,14,25,12.80
2013,09,12,14,26,12.80
2013,09,12,14,27,12.80
2013,09,12,14,28,12.70
2013,09,12,14,29,12.70
2013,09,12,14,30,12.70
2013,09,12,14,31,12.70
2013,09,12,14,32,12.70
2013,09,12,14,33,12.60
2013,09,12,14,34,12.60
2013,09,12,14,35,12.60
2013,09,12,14,36,12.60
2013,09,12,14,37,12.60
2013,09,12,14,38,12.60
2013,09,12,14,39,12.60
2013,09,12,14,40,12.50
2013,09,12,14,41,12.50
2013,09,12,14,42,12.50
2013,09,12,14,43,12.40
2013,09,12,14,44,12.40
2013,09,12,14,45,12.40
2013,09,12,14,46,12.40
2013,09,12,14,47,12.30
2013,09,12,14,48,12.30
2013,09,12,14,49,12.30
2013,09,12,14,50,12.30
2013,09,12,14,51,12.30
2013,09,12,14,52,12.30
2013,09,12,14,53,12.30
2013,09,12,14,54,12.30
2013,09,12,14,55,12.30
2013,09,12,14,56,12.30
2013,09,12,14,57,12.30
2013,09,12,14,58,12.30
2013,09,12,14,59,12.30
2013,09,12,15,00,12.30
2013,09,12,15,01,12.30
2013,09,12,15,02,12.30
2013,09,12,15,03,12.30
2013,09,12,15,04,12.30
2013,09,12,15,05,12.30
2013,09,12,15,06,12.30
2013,09,12,15,07,12.30
2013,09,12,15,08,12.30
2013,09,12,15,09,12.30
2013,09,12,15,10,12.30
2013,09,12,15,11,12.30
2013,09,12,15,12,12.30
2013,09,12,15,13,12.30
2013,09,12,15,14,12.30
2013,09,12,15,15,12.30
2013,09,12,15,16,12.30
2013,09,12,15,17,12.30
2013,09,12,15,18,12.30
2013,09,12,15,19,12.30
2013,09,12,15,20,12.30
2013,09,12,15,21,12.40
2013,09,12,15,22,12.40
2013,09,12,15,23,12.40
2013,09,12,15,24,12.50
2013,09,12,15,25,12.50
2013,09,12,15,26,12.50
2013,09,12,15,27,12.60
2013,09,12,15,28,12.60
2013,09,12,15,29,12.60
2013,09,12,15,30,12.60
2013,09,12,15,31,12.60
2013,09,12,15,32,12.60
2013,09,12,15,33,12.60
2013,09,12,15,34,12.60
2013,09,12,15,35,12.60
2013,09,12,15,36,12.60
2013,09,12,15,37,12.60
2013,09,12,15,38,12.60
2013,09,12,15,39,12.70
2013,09,12,15,40,12.70
2013,09,12,15,41,12.70
2013,09,12,15,42,12.70
2013,09,12,15,43,12.70
2013,09,12,15,44,12.80
2013,09,12,15,45,12.80
2013,09,12,15,46,12.80
2013,09,12,15,47,12.80
2013,09,12,15,48,12.80
2013,09,12,15,49,12.80
2013,09,12,15,50,12.80
2013,09,12,15,51,12.80
2013,09,12,15,52,12.80
2013,09,12,15,53,12.70
2013,09,12,15,54,12.70
2013,09,12,15,55,12.70
2013,09,12,15,56,12.70
2013,09,12,15,57,12.70
2013,09,12,15,58,12.70
2013,09,12,15,59,12.70
2013,09,12,16,00,12.70
2013,09,12,16,01,12.80
2013,09,12,16,02,12.80
2013,09,12,16,03,12.90
2013,09,12,16,04,13.00
2013,09,12,16,05,13.10
2013,09,12,16,06,13.10
2013,09,12,16,07,13.20
2013,09,12,16,08,13.30
2013,09,12,16,09,13.30
2013,09,12,16,10,13.30
2013,09,12,16,11,13.30
2013,09,12,16,12,13.30
2013,09,12,16,13,13.30
2013,09,12,16,14,13.30
2013,09,12,16,15,13.30
2013,09,12,16,16,13.30
2013,09,12,16,17,13.30
2013,09,12,16,18,13.30
2013,09,12,16,19,13.30
2013,09,12,16,20,13.30
2013,09,12,16,21,13.40
2013,09,12,16,22,13.40
2013,09,12,16,23,13.40
2013,09,12,16,24,13.50
2013,09,12,16,25,13.60
2013,09,12,16,26,13.70
2013,09,12,16,27,13.80
2013,09,12,16,28,14.00
2013,09,12,16,29,14.20
2013,09,12,16,30,14.30
2013,09,12,16,31,14.30
2013,09,12,16,32,14.30
2013,09,12,16,33,14.30
2013,09,12,16,34,14.30
2013,09,12,16,35,14.20
2013,09,12,16,36,14.20
2013,09,12,16,37,14.10
2013,09,12,16,38,14.10
2013,09,12,16,39,14.10
2013,09,12,16,40,14.10
2013,09,12,16,41,14.20
2013,09,12,16,42,14.30
2013,09,12,16,43,14.50
2013,09,12,16,44,14.70
2013,09,12,16,45,14.90
2013,09,12,16,46,14.90
2013,09,12,16,47,15.00
2013,09,12,16,48,15.30
2013,09,12,16,49,15.30
2013,09,12,16,50,15.30
2013,09,12,16,51,15.10
2013,09,12,16,52,14.70
2013,09,12,16,53,14.40
2013,09,12,16,54,14.20
2013,09,12,16,55,14.10
2013,09,12,16,56,14.00
2013,09,12,16,57,13.90
2013,09,12,16,58,13.90
2013,09,12,16,59,13.90
2013,09,12,17,00,13.90
2013,09,12,17,01,13.90
2013,09,12,17,02,13.90
2013,09,12,17,03,13.90
2013,09,12,17,04,13.90
2013,09,12,17,05,14.00
2013,09,12,17,06,14.10
2013,09,12,17,07,14.10
2013,09,12,17,08,14.10
2013,09,12,17,09,14.20
2013,09,12,17,10,14.20
2013,09,12,17,11,14.30
2013,09,12,17,12,14.40
2013,09,12,17,13,14.30
2013,09,12,17,14,14.30
2013,09,12,17,15,14.20
2013,09,12,17,16,14.10
2013,09,12,17,17,14.00
2013,09,12,17,18,14.00
2013,09,12,17,19,13.90
2013,09,12,17,20,13.90
2013,09,12,17,21,14.00
2013,09,12,17,22,14.30
2013,09,12,17,23,14.40
2013,09,12,17,24,14.20